Location: MAC-Johnson Site
(33.6264°N, 81.2093°W)
Time: 19:31:35
(UTC-04:00)

BlueWalker 3 - Pass Details

Date: 13 September 2024
Orbit: 472 x 485 km, 53.2° (Epoch: 10 October)

Event Time Altitude Azimuth Distance (km) Brightness Sun altitude
Rises 20:47:40 0° 322° (NW) 2,546 6.4 -16.1°
Reaches altitude 10° 20:49:55 10° 330° (NNW) 1,666 5.2 -16.5°
Maximum altitude 20:53:29 40° 41° (NE) 728 2.5 -17.3°
Enters shadow 20:54:09 36° 69° (ENE) 782 2.5 -17.4°
